RH
34 37 35 21 20 15 9 10 13 9 8 12 10 7 6 5 7 8 7 7 7 8 9 13 25 36 39 41 46 45 33 27 26 29 33 36 32 32 36 40 40 33 27 26
26 39 23 21 20 21 20 15 14 11 12 15 9 8 7 8 7 8 8 8 9 9 10 10 11 15 29 34 41 42 28 30 32 34 32 36 40 54 49 56 54 37 32 29
22 24 22 23 27 28 28 24 18 14 14 14 15 15 12 8 8 7 8 9 9 9 9 10 11 12 12 11 24 39 43 21 25 29 38 62 74 74 72 61 48 40 41 40
23 16 17 23 26 27 35 22 23 24 23 25 12 15 8 6 8 8 6 7 8 9 9 9 9 10 12 8 6 7 30 23 28 32 61 52 42 45 34 36 46 52 49 47
33 23 22 23 24 21 25 22 24 29 31 28 21 22 12 8 7 6 7 7 7 7 9 7 7 8 9 10 10 6 6 23 53 38 30 38 39 30 41 50 49 46 48 43
34 28 33 22 20 20 20 25 29 31 31 40 25 22 15 11 8 8 8 8 8 8 9 8 7 8 8 11 15 6 6 6 27 50 13 17 13 13 50 47 38 41 33 31
15 26 28 36 36 21 23 30 39 40 42 37 18 22 19 10 9 8 9 8 9 9 10 9 8 9 9 14 9 7 6 6 9 13 8 6 6 7 17 34 35 40 30 25
16 18 15 24 34 27 26 25 32 36 28 25 17 22 16 11 10 10 10 10 11 9 13 14 13 12 13 15 9 7 7 7 8 8 7 7 7 10 12 40 53 34 32 29
26 24 12 20 22 28 28 30 18 28 23 25 21 14 13 13 12 12 12 11 11 11 11 11 14 15 16 16 10 10 9 8 8 7 6 6 6 7 10 17 30 43 44 46
30 36 22 26 28 25 29 18 35 32 45 41 23 20 18 14 14 13 13 12 11 10 9 13 15 18 19 18 12 11 11 11 10 10 9 7 6 8 12 37 44 42 40 36
42 43 31 21 31 31 30 34 28 28 33 39 36 23 14 14 14 16 14 16 17 16 16 17 17 18 25 27 25 12 10 13 12 10 8 9 9 11 25 57 56 39 34 38
81 63 46 33 24 22 29 54 32 43 37 33 35 32 13 15 15 15 15 14 13 19 19 20 19 20 22 23 30 41 23 18 21 15 11 15 17 23 58 78 58 40 36 47
73 93 71 41 30 28 37 35 62 54 42 44 45 35 17 17 17 16 16 16 16 16 17 23 20 22 23 24 31 42 53 39 46 40 29 39 53 66 77 88 68 51 52 58
70 63 60 62 66 46 55 38 31 52 99 74 51 33 23 20 19 17 19 20 19 16 22 24 23 25 26 24 23 36 44 37 47 75 70 73 80 88 92 88 84 68 51 45
64 88 66 58 43 32 38 52 49 52 75 95 62 60 46 38 36 34 26 27 30 30 29 27 27 27 28 22 20 30 43 40 62 85 88 83 88 93 95 97 96 68 43 31
52 78 67 86 52 50 59 44 50 49 44 45 44 47 42 38 40 34 35 38 34 32 32 32 31 28 27 31 30 20 25 32 30 71 96 99 98 97 94 92 80 48 33 29
78 63 63 77 41 44 72 64 38 32 30 33 43 34 26 24 24 27 27 28 29 33 34 33 32 33 31 31 24 25 23 24 29 48 74 91 86 89 81 70 63 41 32 32
66 65 70 82 57 87 34 21 21 26 24 24 29 29 23 20 18 18 19 24 27 30 34 32 28 30 39 35 33 26 24 22 22 27 56 67 68 62 62 65 67 48 44 42
52 61 84 87 64 44 32 26 26 31 28 22 26 28 22 22 20 18 21 27 29 29 26 30 30 44 42 34 21 20 24 24 22 22 24 71 66 65 51 45 51 56 67 55
49 59 83 77 83 68 31 20 19 22 41 22 20 21 21 25 35 24 20 24 28 28 30 35 39 33 33 31 34 24 28 29 22 29 23 29 44 50 66 54 47 50 75 71
70 78 88 75 80 52 28 24 24 54 37 19 20 23 25 29 26 28 30 31 30 30 33 30 29 29 28 30 35 31 34 41 50 35 30 26 33 45 56 79 64 60 72 92
59 70 72 77 83 83 40 32 51 51 67 53 44 40 38 35 34 34 34 33 32 31 30 34 32 27 27 34 38 33 29 36 43 59 36 34 37 53 83 94 90 74 72 84
74 54 67 60 48 34 40 42 42 41 49 56 55 54 53 51 50 45 42 39 36 35 33 31 31 28 28 34 35 32 34 35 42 51 68 80 70 54 96 100 100 92 90 97
67 64 73 56 43 36 34 36 44 58 59 57 55 54 54 52 52 50 47 45 42 38 34 32 32 32 29 32 37 36 33 41 49 56 66 83 89 93 99 100 100 100 99 99
52 45 49 49 40 37 36 48 54 63 61 59 59 61 63 64 59 53 50 48 45 42 40 36 35 38 34 34 33 32 32 40 54 64 72 80 88 100 99 99 99 99 99 94
45 48 59 66 40 45 50 56 67 63 64 71 74 73 71 77 77 74 67 64 58 50 43 38 39 40 41 38 36 34 37 50 56 62 71 63 86 100 99 99 99 100 100 100
Wind_Speed
25 15 21 29 26 24 24 17 21 18 18 9 17 22 21 26 19 21 26 25 27 28 26 24 24 26 26 28 29 32 34 37 38 37 36 37 37 36 36 35 35 37 38 37
17 26 30 22 22 24 23 22 19 10 8 9 17 22 19 19 23 22 23 26 28 26 25 25 24 25 27 30 32 33 38 39 42 42 41 38 36 34 34 33 35 39 40 40
28 25 24 25 22 22 22 25 21 17 11 12 11 21 21 22 27 30 29 27 27 27 29 28 26 25 28 34 35 36 37 42 45 45 41 35 27 29 30 36 39 41 41 42
18 28 24 28 24 22 23 22 19 19 17 17 17 20 24 21 25 24 33 33 31 33 33 33 32 30 29 37 38 41 38 42 44 44 38 42 44 41 44 40 38 39 41 43
15 15 23 27 24 24 24 18 17 16 16 16 20 11 25 19 22 22 20 29 30 29 32 36 37 36 35 34 38 43 40 42 40 44 45 45 46 46 39 35 34 35 36 39
17 6 5 17 22 21 15 17 17 14 13 17 24 19 25 21 23 17 16 20 23 26 29 30 31 31 33 29 30 38 36 42 42 43 46 46 45 44 36 38 36 34 34 36
25 22 16 9 8 19 20 16 13 14 12 21 20 18 27 5 7 8 10 17 20 23 23 23 25 26 28 26 31 34 35 34 37 42 43 42 39 40 44 41 40 34 35 37
16 17 24 18 22 15 27 25 14 19 17 22 21 15 21 17 31 38 31 25 28 23 17 15 23 24 23 21 24 28 34 34 35 38 40 41 42 42 43 40 37 38 36 35
7 11 9 10 20 22 19 21 28 27 23 14 11 17 27 24 22 22 25 22 19 17 26 23 16 14 17 17 16 16 20 25 30 34 35 39 41 43 43 44 43 38 35 31
9 15 15 9 10 19 23 15 18 16 25 28 21 22 14 13 12 18 17 19 26 29 24 18 15 13 12 13 14 16 19 25 29 32 36 40 42 41 41 39 41 39 35 32
10 12 9 11 14 16 14 18 18 16 19 20 21 21 24 26 19 9 7 3 10 10 12 9 9 10 8 12 16 18 19 23 31 36 37 41 45 42 39 38 39 38 36 32
9 6 14 21 15 13 15 8 19 16 22 17 21 20 16 11 15 22 28 35 26 13 13 12 12 13 15 12 11 13 16 20 25 33 36 39 40 39 36 37 37 37 34 33
3 2 7 10 14 15 17 18 9 16 19 25 19 17 19 25 26 30 28 29 27 24 22 15 11 10 12 13 14 15 16 19 20 25 30 33 35 35 35 34 36 34 34 32
8 7 9 9 14 12 11 15 18 10 4 11 22 27 26 24 25 24 20 24 29 32 18 14 11 9 10 12 15 18 16 18 20 20 23 27 31 31 32 32 32 34 35 34
7 8 12 16 18 17 16 15 18 18 14 9 15 18 23 22 24 27 35 26 23 24 25 23 20 19 18 19 17 17 17 19 16 14 19 23 24 26 27 29 31 35 36 34
10 9 7 8 15 16 18 15 16 19 20 21 20 19 21 32 25 28 31 28 30 32 31 27 25 24 21 18 20 22 19 17 18 13 15 17 21 24 29 29 32 36 36 35
8 10 11 18 14 13 11 21 23 23 23 20 19 19 19 20 17 21 25 29 31 30 30 31 27 24 24 19 21 22 20 19 18 16 18 18 21 24 28 31 33 36 37 36
21 18 10 12 15 15 16 16 19 22 23 22 23 21 20 22 27 29 24 21 22 26 28 29 26 19 14 12 14 19 22 22 21 18 19 22 25 26 27 31 34 36 37 37
23 18 9 9 14 17 21 21 17 17 21 17 19 24 26 32 35 29 24 26 27 25 26 24 21 15 13 14 18 22 22 23 23 22 21 21 25 28 31 34 36 37 37 38
12 15 11 11 11 13 17 21 14 14 18 25 23 24 23 28 17 16 25 19 19 20 23 20 15 16 18 18 16 20 24 24 27 24 23 20 25 29 33 35 37 36 37 36
4 7 15 16 14 12 19 21 21 11 16 19 23 23 21 17 20 32 33 29 30 30 26 23 23 26 23 20 18 19 20 25 23 25 23 24 24 27 31 35 37 36 37 34
7 5 8 10 11 14 11 12 10 16 30 29 28 25 26 27 29 30 35 29 30 30 28 29 29 29 25 20 17 19 21 20 20 21 23 25 25 27 30 35 39 39 39 38
6 9 5 6 9 21 29 17 22 25 26 26 30 27 28 32 37 39 43 41 36 31 31 29 30 32 28 22 20 21 20 17 19 21 22 22 24 26 31 33 39 41 40 39
6 9 7 15 15 18 28 32 18 12 18 23 30 33 32 35 39 42 44 44 39 36 32 30 30 32 31 25 23 22 20 19 19 21 22 22 27 30 30 35 35 41 45 45
18 20 18 23 23 27 23 9 17 24 29 27 31 33 35 35 43 42 45 48 46 41 36 35 34 32 32 28 28 25 22 20 21 23 23 25 28 31 34 37 37 39 45 50
21 20 14 16 26 23 23 21 25 31 27 25 30 35 39 35 41 43 45 50 49 47 45 42 37 35 33 32 32 28 23 21 23 24 26 29 30 31 36 40 40 44 47 50
Wind_Direction
198 209 215 216 218 234 249 247 227 228 228 250 226 245 230 241 228 237 234 227 221 222 221 221 221 220 218 218 219 223 227 230 230 227 227 227 231 233 234 233 233 235 236 237
199 222 223 227 235 234 240 241 233 245 256 243 250 247 244 240 244 236 234 232 231 227 225 224 224 224 223 224 222 227 231 234 233 233 235 235 234 232 236 235 235 239 239 239
222 222 224 225 229 231 234 235 239 241 203 229 267 260 247 243 249 247 239 239 241 232 232 235 234 233 233 234 233 230 229 233 236 236 234 229 225 230 233 236 240 245 245 242
241 242 233 226 226 223 235 233 248 258 249 249 237 269 253 238 227 236 240 239 239 243 243 243 243 242 240 242 248 250 236 232 234 233 224 230 236 236 245 249 247 244 244 241
218 231 236 238 234 227 243 241 254 235 242 255 251 253 263 254 246 237 235 244 244 243 243 245 246 247 247 247 252 253 251 233 229 234 232 234 235 242 243 243 244 246 242 241
260 230 270 251 239 240 254 230 228 237 237 239 236 239 264 244 244 236 238 248 251 246 248 249 249 248 246 243 241 253 246 238 229 228 235 234 241 243 234 235 239 239 240 240
244 248 240 228 256 223 221 213 218 223 223 238 229 227 244 229 279 282 273 248 244 253 251 249 249 249 243 246 247 257 239 231 227 228 233 238 242 243 242 238 237 233 235 237
235 242 226 225 228 230 212 220 226 223 229 239 224 236 238 244 257 260 263 245 256 274 225 268 254 247 247 246 250 246 234 229 227 229 234 239 241 241 241 235 231 237 236 237
236 234 251 220 223 218 228 219 228 243 266 275 261 233 236 253 258 256 251 257 258 259 252 269 255 249 254 238 237 240 241 240 238 236 236 239 242 243 244 241 237 234 234 233
265 274 267 254 239 224 233 232 226 234 240 246 238 236 232 208 219 238 252 257 257 260 262 268 270 265 238 246 244 252 257 256 255 253 246 244 247 247 248 237 231 229 232 232
295 259 252 222 224 233 210 236 245 251 221 243 250 239 236 250 262 272 267 330 351 293 265 289 299 276 250 280 275 266 272 273 260 255 254 244 243 244 241 228 225 227 228 226
2 286 250 255 254 263 288 282 246 235 234 237 245 248 260 273 273 257 260 280 281 274 299 300 301 289 290 290 294 283 291 288 268 254 250 244 238 235 231 220 220 222 221 218
131 345 318 234 231 247 251 255 222 281 265 255 254 252 242 259 268 267 268 269 278 278 290 291 291 300 305 302 310 308 301 297 278 253 242 236 230 224 220 214 215 215 212 212
207 250 237 270 292 292 292 279 252 256 269 268 261 260 260 262 270 273 272 276 274 270 279 287 294 309 316 321 314 313 311 317 300 249 235 227 223 218 214 211 209 208 208 213
232 248 242 259 272 269 270 258 265 254 244 240 276 283 281 284 291 297 286 290 286 281 281 281 281 288 294 301 309 312 311 312 306 259 238 229 220 213 211 206 204 205 209 214
266 264 268 272 266 264 266 259 259 257 265 267 261 264 267 271 269 274 266 273 276 276 276 280 285 283 288 295 299 296 303 310 306 277 246 230 218 208 207 206 205 210 210 210
276 283 286 274 281 276 255 241 254 253 251 256 261 261 261 271 273 268 271 265 264 262 267 276 278 281 280 284 289 290 294 301 302 283 257 236 230 220 213 210 211 211 210 210
249 254 266 276 284 262 261 263 257 251 252 248 248 260 278 277 271 267 276 287 279 268 262 265 270 281 271 284 289 285 285 289 288 284 263 251 245 237 227 217 216 214 211 211
231 246 253 253 264 277 280 268 261 267 264 260 253 245 258 261 269 272 272 276 277 280 280 277 280 270 275 295 300 294 286 278 278 276 273 255 253 242 238 236 232 225 216 212
220 222 234 244 257 264 261 265 284 287 264 262 269 278 274 272 274 281 283 292 298 291 288 274 272 278 281 288 292 297 289 279 267 270 270 273 261 255 246 240 234 226 219 214
196 206 222 234 245 259 276 286 289 266 267 292 306 315 306 291 283 286 284 288 288 288 278 267 272 285 282 281 279 285 284 280 288 279 271 264 266 258 251 241 235 223 216 212
270 268 244 237 244 256 11 357 299 338 328 317 325 320 318 303 296 290 286 289 293 287 278 269 268 273 276 273 272 276 277 285 291 287 277 265 261 254 242 241 233 220 216 211
256 240 293 282 287 308 317 316 300 311 303 303 305 303 303 301 296 295 292 292 289 282 278 272 266 270 271 263 264 271 278 287 287 283 276 265 251 248 241 239 234 217 214 213
296 295 288 302 274 280 311 303 306 314 314 315 304 302 300 297 293 289 288 287 286 282 276 272 268 266 267 259 260 267 282 286 284 279 277 265 250 242 237 234 237 224 217 211
284 290 290 280 280 291 295 279 310 310 311 310 305 305 302 298 288 284 285 283 281 277 277 274 269 264 258 256 263 269 278 282 283 285 277 262 251 241 231 228 231 230 228 224
259 269 272 276 289 302 292 299 303 303 305 307 303 308 309 303 293 289 282 279 279 276 272 268 266 259 256 256 259 266 271 272 282 283 278 267 252 235 230 227 221 220 223 220